Time,TemperatureF,DewpointF,PressureIn,WindDirection,WindDirectionDegrees,WindSpeedMPH,WindSpeedGustMPH,Humidity,HourlyPrecipIn,Conditions,Clouds,dailyrainin,SoftwareType,DateUTC
2013-04-03 00:12:00,30.9,28.0,25.33,SW,225,7.0,8.0,88,0.00,,,0.00,weatherlink.com 1.10,2013-04-03 06:12:00,
2013-04-03 00:27:00,31.0,28.0,25.33,SW,226,7.0,10.0,88,0.00,,,0.00,weatherlink.com 1.10,2013-04-03 06:27:00,
2013-04-03 00:42:00,31.2,28.0,25.33,South,173,5.0,10.0,87,0.00,,,0.00,weatherlink.com 1.10,2013-04-03 06:42:00,
2013-04-03 00:57:00,31.2,28.0,25.32,SW,236,0.0,10.0,88,0.00,,,0.00,weatherlink.com 1.10,2013-04-03 06:57:00,
2013-04-03 01:12:00,30.2,27.0,25.33,West,262,3.0,4.0,88,0.00,,,0.00,weatherlink.com 1.10,2013-04-03 07:12:00,
2013-04-03 01:27:00,28.5,25.0,25.33,NW,307,2.0,3.0,87,0.00,,,0.00,weatherlink.com 1.10,2013-04-03 07:27:00,
2013-04-03 01:42:00,28.6,26.0,25.33,NW,323,2.0,5.0,90,0.00,,,0.00,weatherlink.com 1.10,2013-04-03 07:42:00,
2013-04-03 01:57:00,29.7,27.0,25.33,SW,215,2.0,4.0,89,0.00,,,0.00,weatherlink.com 1.10,2013-04-03 07:57:00,
2013-04-03 02:12:00,29.3,26.0,25.33,West,276,1.0,4.0,88,0.00,,,0.00,weatherlink.com 1.10,2013-04-03 08:12:00,
2013-04-03 02:27:00,29.2,26.0,25.33,West,281,1.0,2.0,89,0.00,,,0.00,weatherlink.com 1.10,2013-04-03 08:27:00,
2013-04-03 02:42:00,29.0,26.0,25.32,West,264,0.0,2.0,88,0.00,,,0.00,weatherlink.com 1.10,2013-04-03 08:42:00,
2013-04-03 02:57:00,28.5,26.0,25.33,SSW,206,3.0,3.0,90,0.00,,,0.00,weatherlink.com 1.10,2013-04-03 08:57:00,
2013-04-03 03:13:00,28.9,27.0,25.33,SSW,212,2.0,7.0,91,0.00,,,0.00,weatherlink.com 1.10,2013-04-03 09:13:00,
2013-04-03 03:28:00,30.0,29.0,25.32,WSW,252,2.0,6.0,94,0.00,,,0.00,weatherlink.com 1.10,2013-04-03 09:28:00,
2013-04-03 03:43:00,30.8,29.0,25.32,WSW,253,3.0,4.0,94,0.00,,,0.00,weatherlink.com 1.10,2013-04-03 09:43:00,
2013-04-03 03:58:00,31.2,30.0,25.32,SSE,163,3.0,8.0,94,0.00,,,0.00,weatherlink.com 1.10,2013-04-03 09:58:00,
2013-04-03 04:13:00,31.6,30.0,25.33,South,191,5.0,9.0,95,0.00,,,0.00,weatherlink.com 1.10,2013-04-03 10:13:00,
2013-04-03 04:28:00,32.4,31.0,25.33,WSW,252,4.0,11.0,95,0.00,,,0.00,weatherlink.com 1.10,2013-04-03 10:28:00,
2013-04-03 04:43:00,32.1,31.0,25.33,West,272,3.0,5.0,94,0.00,,,0.00,weatherlink.com 1.10,2013-04-03 10:43:00,
2013-04-03 04:58:00,32.6,31.0,25.33,WSW,256,5.0,8.0,95,0.00,,,0.00,weatherlink.com 1.10,2013-04-03 10:58:00,
2013-04-03 05:14:00,33.3,32.0,25.33,WSW,253,6.0,9.0,94,0.00,,,0.00,weatherlink.com 1.10,2013-04-03 11:14:00,
2013-04-03 05:28:00,33.3,32.0,25.33,NW,319,1.0,8.0,94,0.00,,,0.00,weatherlink.com 1.10,2013-04-03 11:28:00,
2013-04-03 05:43:00,32.7,32.0,25.33,SW,228,5.0,6.0,95,0.00,,,0.00,weatherlink.com 1.10,2013-04-03 11:43:00,
2013-04-03 05:58:00,34.0,32.0,25.33,SW,216,8.0,9.0,93,0.00,,,0.00,weatherlink.com 1.10,2013-04-03 11:58:00,
2013-04-03 06:13:00,34.3,32.0,25.33,SSW,195,6.0,12.0,91,0.00,,,0.00,weatherlink.com 1.10,2013-04-03 12:13:00,
2013-04-03 06:28:00,34.3,32.0,25.33,West,273,4.0,10.0,91,0.00,,,0.00,weatherlink.com 1.10,2013-04-03 12:28:00,
2013-04-03 06:43:00,34.2,32.0,25.34,SE,139,7.0,10.0,90,0.00,,,0.00,weatherlink.com 1.10,2013-04-03 12:43:00,
2013-04-03 06:58:00,34.2,32.0,25.34,South,184,10.0,11.0,90,0.00,,,0.00,weatherlink.com 1.10,2013-04-03 12:58:00,
2013-04-03 07:13:00,34.3,32.0,25.34,SW,218,6.0,9.0,90,0.00,,,0.00,weatherlink.com 1.10,2013-04-03 13:13:00,
2013-04-03 07:28:00,34.3,32.0,25.34,SSW,204,6.0,14.0,90,0.00,,,0.00,weatherlink.com 1.10,2013-04-03 13:28:00,
2013-04-03 07:43:00,34.4,32.0,25.34,SSW,207,5.0,13.0,90,0.00,,,0.00,weatherlink.com 1.10,2013-04-03 13:43:00,
2013-04-03 07:58:00,34.5,32.0,25.34,WSW,252,6.0,9.0,90,0.00,,,0.00,weatherlink.com 1.10,2013-04-03 13:58:00,
2013-04-03 08:13:00,34.7,32.0,25.34,SW,224,11.0,15.0,89,0.00,,,0.00,weatherlink.com 1.10,2013-04-03 14:13:00,
2013-04-03 08:28:00,35.2,32.0,25.34,SW,228,7.0,13.0,88,0.00,,,0.00,weatherlink.com 1.10,2013-04-03 14:28:00,
2013-04-03 08:43:00,35.3,32.0,25.34,West,277,6.0,12.0,88,0.00,,,0.00,weatherlink.com 1.10,2013-04-03 14:43:00,
2013-04-03 08:58:00,36.1,33.0,25.34,WSW,239,11.0,15.0,87,0.00,,,0.00,weatherlink.com 1.10,2013-04-03 14:58:00,
2013-04-03 09:13:00,36.2,32.0,25.34,WSW,240,5.0,14.0,86,0.00,,,0.00,weatherlink.com 1.10,2013-04-03 15:13:00,
2013-04-03 09:28:00,37.7,33.0,25.33,SSW,212,6.0,14.0,84,0.00,,,0.00,weatherlink.com 1.10,2013-04-03 15:28:00,
2013-04-03 09:43:00,39.3,34.0,25.33,South,181,10.0,13.0,81,0.00,,,0.00,weatherlink.com 1.10,2013-04-03 15:43:00,
2013-04-03 10:29:00,43.7,34.0,25.33,WSW,248,16.0,17.0,70,0.00,,,0.00,weatherlink.com 1.10,2013-04-03 16:29:00,
2013-04-03 11:14:00,47.0,35.0,25.31,WSW,253,6.0,13.0,63,0.00,,,0.00,weatherlink.com 1.10,2013-04-03 17:14:00,
2013-04-03 11:29:00,48.8,35.0,25.31,WSW,240,7.0,13.0,59,0.00,,,0.00,weatherlink.com 1.10,2013-04-03 17:29:00,
2013-04-03 12:14:00,52.0,34.0,25.30,SSW,203,7.0,17.0,51,0.00,,,0.00,weatherlink.com 1.10,2013-04-03 18:14:00,
2013-04-03 12:29:00,53.4,34.0,25.29,West,259,4.0,10.0,48,0.00,,,0.00,weatherlink.com 1.10,2013-04-03 18:29:00,
2013-04-03 12:44:00,54.9,34.0,25.29,ESE,110,4.0,12.0,45,0.00,,,0.00,weatherlink.com 1.10,2013-04-03 18:44:00,
2013-04-03 12:59:00,56.2,34.0,25.29,ENE,64,5.0,12.0,44,0.00,,,0.00,weatherlink.com 1.10,2013-04-03 18:59:00,
2013-04-03 13:14:00,56.4,34.0,25.28,SSW,197,3.0,11.0,43,0.00,,,0.00,weatherlink.com 1.10,2013-04-03 19:14:00,
2013-04-03 13:29:00,57.8,33.0,25.28,WSW,240,2.0,12.0,40,0.00,,,0.00,weatherlink.com 1.10,2013-04-03 19:29:00,
2013-04-03 13:44:00,58.7,33.0,25.27,SE,124,5.0,10.0,38,0.00,,,0.00,weatherlink.com 1.10,2013-04-03 19:44:00,
2013-04-03 13:59:00,60.0,32.0,25.27,West,266,2.0,10.0,35,0.00,,,0.00,weatherlink.com 1.10,2013-04-03 19:59:00,
2013-04-03 14:14:00,59.6,32.0,25.26,WNW,283,1.0,11.0,35,0.00,,,0.00,weatherlink.com 1.10,2013-04-03 20:14:00,
2013-04-03 14:29:00,59.8,27.0,25.26,WSW,243,9.0,13.0,29,0.00,,,0.00,weatherlink.com 1.10,2013-04-03 20:29:00,
2013-04-03 14:59:00,62.2,29.0,25.26,West,267,1.0,11.0,28,0.00,,,0.00,weatherlink.com 1.10,2013-04-03 20:59:00,
2013-04-03 15:14:00,61.8,24.0,25.25,SE,138,4.0,10.0,24,0.00,,,0.00,weatherlink.com 1.10,2013-04-03 21:14:00,
2013-04-03 15:45:00,66.0,24.0,25.24,SW,214,4.0,6.0,20,0.00,,,0.00,weatherlink.com 1.10,2013-04-03 21:45:00,
2013-04-03 16:00:00,65.6,23.0,25.24,NE,36,7.0,7.0,20,0.00,,,0.00,weatherlink.com 1.10,2013-04-03 22:00:00,
2013-04-03 16:15:00,64.5,24.0,25.24,SE,124,0.0,6.0,21,0.00,,,0.00,weatherlink.com 1.10,2013-04-03 22:15:00,
2013-04-03 16:30:00,65.8,24.0,25.23,NNE,27,2.0,10.0,20,0.00,,,0.00,weatherlink.com 1.10,2013-04-03 22:30:00,
2013-04-03 16:45:00,66.0,22.0,25.23,ENE,78,2.0,5.0,19,0.00,,,0.00,weatherlink.com 1.10,2013-04-03 22:45:00,
2013-04-03 17:00:00,65.0,25.0,25.23,ESE,108,5.0,14.0,22,0.00,,,0.00,weatherlink.com 1.10,2013-04-03 23:00:00,
2013-04-03 17:15:00,63.9,25.0,25.23,WSW,237,5.0,11.0,23,0.00,,,0.00,weatherlink.com 1.10,2013-04-03 23:15:00,
2013-04-03 17:30:00,62.3,29.0,25.23,ESE,115,8.0,16.0,28,0.00,,,0.00,weatherlink.com 1.10,2013-04-03 23:30:00,
2013-04-03 17:45:00,62.1,29.0,25.23,SW,236,10.0,17.0,29,0.00,,,0.00,weatherlink.com 1.10,2013-04-03 23:45:00,
2013-04-03 18:00:00,61.7,31.0,25.23,West,269,5.0,15.0,31,0.00,,,0.00,weatherlink.com 1.10,2013-04-04 00:00:00,
2013-04-03 18:15:00,60.9,31.0,25.23,SSE,167,4.0,16.0,32,0.00,,,0.00,weatherlink.com 1.10,2013-04-04 00:15:00,
2013-04-03 18:30:00,60.1,31.0,25.23,WSW,250,6.0,14.0,34,0.00,,,0.00,weatherlink.com 1.10,2013-04-04 00:30:00,
2013-04-03 18:45:00,58.7,32.0,25.23,ESE,123,9.0,14.0,36,0.00,,,0.00,weatherlink.com 1.10,2013-04-04 00:45:00,
2013-04-03 19:00:00,56.6,32.0,25.24,SW,228,8.0,14.0,39,0.00,,,0.00,weatherlink.com 1.10,2013-04-04 01:00:00,
2013-04-03 19:15:00,54.4,32.0,25.24,WSW,238,12.0,12.0,42,0.00,,,0.00,weatherlink.com 1.10,2013-04-04 01:15:00,
2013-04-03 19:30:00,52.9,32.0,25.25,SSE,152,5.0,12.0,46,0.00,,,0.00,weatherlink.com 1.10,2013-04-04 01:30:00,
2013-04-03 19:45:00,51.5,33.0,25.25,SSW,193,8.0,14.0,49,0.00,,,0.00,weatherlink.com 1.10,2013-04-04 01:45:00,
2013-04-03 20:00:00,50.2,33.0,25.26,SSE,158,6.0,14.0,51,0.00,,,0.00,weatherlink.com 1.10,2013-04-04 02:00:00,
2013-04-03 20:15:00,49.3,33.0,25.26,South,178,6.0,14.0,53,0.00,,,0.00,weatherlink.com 1.10,2013-04-04 02:15:00,
2013-04-03 20:30:00,48.0,32.0,25.27,SSW,205,8.0,14.0,55,0.00,,,0.00,weatherlink.com 1.10,2013-04-04 02:30:00,
2013-04-03 20:45:00,47.1,32.0,25.27,SW,214,9.0,13.0,57,0.00,,,0.00,weatherlink.com 1.10,2013-04-04 02:45:00,
2013-04-03 21:00:00,46.7,32.0,25.28,SW,217,9.0,15.0,58,0.00,,,0.00,weatherlink.com 1.10,2013-04-04 03:00:00,
2013-04-03 21:15:00,47.0,32.0,25.28,SW,225,14.0,15.0,57,0.00,,,0.00,weatherlink.com 1.10,2013-04-04 03:15:00,
2013-04-03 21:30:00,46.8,32.0,25.28,SW,219,9.0,18.0,57,0.00,,,0.00,weatherlink.com 1.10,2013-04-04 03:30:00,
2013-04-03 21:45:00,47.0,32.0,25.28,South,186,12.0,18.0,57,0.00,,,0.00,weatherlink.com 1.10,2013-04-04 03:45:00,
2013-04-03 22:00:00,46.3,32.0,25.29,South,191,7.0,16.0,58,0.00,,,0.00,weatherlink.com 1.10,2013-04-04 04:00:00,
2013-04-03 22:15:00,45.1,32.0,25.29,SSW,203,11.0,14.0,60,0.00,,,0.00,weatherlink.com 1.10,2013-04-04 04:15:00,
2013-04-03 22:30:00,45.0,31.0,25.29,WSW,250,6.0,11.0,59,0.00,,,0.00,weatherlink.com 1.10,2013-04-04 04:30:00,
2013-04-03 22:45:00,44.7,31.0,25.29,West,259,5.0,11.0,59,0.00,,,0.00,weatherlink.com 1.10,2013-04-04 04:45:00,
2013-04-03 23:00:00,47.9,31.0,25.30,WSW,242,9.0,16.0,53,0.00,,,0.00,weatherlink.com 1.10,2013-04-04 05:00:00,
2013-04-03 23:15:00,48.0,31.0,25.30,West,270,8.0,17.0,53,0.00,,,0.00,weatherlink.com 1.10,2013-04-04 05:15:00,
2013-04-03 23:30:00,49.3,31.0,25.30,WNW,302,8.0,14.0,50,0.00,,,0.00,weatherlink.com 1.10,2013-04-04 05:30:00,
2013-04-03 23:45:00,51.3,34.0,25.29,NW,319,17.0,30.0,51,0.00,,,0.00,weatherlink.com 1.10,2013-04-04 05:45:00,